Date String (YYYY-MM-DD hh:mm:ss) UTC,Instrument flags,Ambient pressure (hPa),Sample flow (lpm),Bypass flow (lpm),Sample temperature (°C),Ambient temperature (°C),ASC tube jacket temperature (°C),LED temperature (°C),Box temperature (°C),Sample RH (%),Span deviation,Mass concentration (μg/m³),Mass concentration (μg/m³),Mass concentration (μg/m³)
DateTimeUTC,F1_M11,P_M11,Q1_M11,Q2_M11,T1_M11,T2_M11,T3_M11,T4_M11,T5_M11,U1_M11,ZSPAN_M11,X0_M11,X2_M11,X1_M11
2021-11-07 00:00:00,,0825.3,5.01,0.00,29.9,26.9,00.0,39.0,31.5,05.5,0000.0,0011.68,0003.33,0001.71
2021-11-07 00:01:00,,0825.3,4.99,0.00,29.9,27.4,00.0,38.9,31.5,05.5,0000.0,0012.46,0003.35,0001.72
2021-11-07 00:02:00,,0825.4,5.01,0.00,29.9,27.7,00.0,38.9,31.6,05.6,0000.0,0012.66,0003.39,0001.73
2021-11-07 00:03:00,,0825.4,5.00,0.00,29.9,28.1,00.0,38.9,31.6,05.6,0000.0,0012.79,0003.38,0001.72
2021-11-07 00:04:00,,0825.4,5.01,0.00,29.9,28.4,00.0,38.9,31.7,05.6,0000.0,0012.67,0003.35,0001.71
2021-11-07 00:05:00,,0825.3,5.00,0.00,30.0,28.6,00.0,38.9,31.7,05.5,0000.0,0013.05,0003.36,0001.71
2021-11-07 00:06:00,,0825.4,5.00,0.00,30.0,28.8,00.0,38.9,31.8,05.5,0000.0,0012.78,0003.35,0001.71
2021-11-07 00:07:00,,0825.3,5.00,0.00,30.0,28.9,00.0,38.9,31.9,05.5,0000.0,0012.57,0003.36,0001.71
2021-11-07 00:08:00,,0825.3,4.99,0.00,30.0,29.1,00.0,38.9,31.9,05.4,0000.0,0012.43,0003.39,0001.69
2021-11-07 00:09:00,,0825.2,5.00,0.00,30.1,29.2,00.0,39.0,31.9,05.3,0000.0,0011.79,0003.39,0001.70
2021-11-07 00:10:00,,0825.2,5.00,0.00,30.1,29.3,00.0,39.0,31.9,05.3,0000.0,0011.44,0003.40,0001.70
2021-11-07 00:11:00,,0825.2,5.02,0.00,30.1,29.3,00.0,39.0,32.0,05.3,0000.0,0012.27,0003.40,0001.73
2021-11-07 00:12:00,,0825.3,4.99,0.00,30.2,29.4,00.0,39.0,32.0,05.3,0000.0,0011.80,0003.39,0001.72
2021-11-07 00:13:00,,0825.3,5.01,0.00,30.2,29.5,00.0,39.1,32.1,05.3,0000.0,0011.52,0003.36,0001.72
2021-11-07 00:14:00,,0825.3,5.01,0.00,30.3,29.5,00.0,39.1,32.1,05.3,0000.0,0011.30,0003.36,0001.74
2021-11-07 00:15:00,,0825.3,5.00,0.00,30.3,29.0,00.0,39.1,32.0,05.3,0000.0,0010.97,0003.37,0001.75
2021-11-07 00:16:00,,0825.3,5.02,0.00,30.2,27.0,00.0,39.1,31.7,05.2,0000.0,0010.45,0003.39,0001.76
2021-11-07 00:17:00,,0825.3,4.99,0.00,30.1,26.7,00.0,39.1,31.6,05.2,0000.0,0011.32,0003.40,0001.77
2021-11-07 00:18:00,,0825.3,5.01,0.00,30.0,27.0,00.0,39.0,31.6,05.3,0000.0,0011.73,0003.42,0001.79
2021-11-07 00:19:00,,0825.3,5.00,0.00,29.9,27.4,00.0,39.0,31.5,05.3,0000.0,0012.26,0003.44,0001.81
2021-11-07 00:20:00,,0825.3,4.99,0.00,29.9,27.7,00.0,39.0,31.5,05.2,0000.0,0013.85,0003.44,0001.81
2021-11-07 00:21:00,,0825.3,5.00,0.00,29.9,28.1,00.0,38.9,31.6,05.2,0000.0,0014.87,0003.40,0001.81
2021-11-07 00:22:00,,0825.4,5.01,0.00,29.9,28.3,00.0,38.9,31.7,05.1,0000.0,0014.45,0003.40,0001.80
2021-11-07 00:23:00,,0825.3,5.00,0.00,30.0,28.5,00.0,38.9,31.7,05.1,0000.0,0016.19,0003.47,0001.81
2021-11-07 00:24:00,,0825.3,5.00,0.00,30.0,28.7,00.0,38.9,31.8,05.2,0000.0,0016.89,0003.51,0001.82
2021-11-07 00:25:00,,0825.3,4.99,0.00,30.0,28.9,00.0,39.0,31.8,05.1,0000.0,0016.96,0003.54,0001.81
2021-11-07 00:26:00,,0825.3,5.01,0.00,30.0,29.0,00.0,39.0,31.8,05.2,0000.0,0016.83,0003.57,0001.82
2021-11-07 00:27:00,,0825.4,5.00,0.00,30.1,29.1,00.0,39.0,31.9,05.2,0000.0,0016.72,0003.56,0001.84
2021-11-07 00:28:00,,0825.4,5.00,0.00,30.1,29.2,00.0,39.0,31.9,05.1,0000.0,0016.51,0003.61,0001.87
2021-11-07 00:29:00,,0825.4,5.00,0.00,30.1,29.3,00.0,39.0,32.0,05.2,0000.0,0016.45,0003.61,0001.88
2021-11-07 00:30:00,,0825.4,5.01,0.00,30.2,29.4,00.0,39.0,32.0,05.6,0000.0,0015.82,0003.59,0001.87
2021-11-07 00:31:00,,0825.4,5.00,0.00,30.2,29.4,00.0,39.1,32.0,06.2,0000.0,0014.19,0003.55,0001.88
2021-11-07 00:32:00,,0825.4,5.01,0.00,30.2,29.4,00.0,39.1,32.0,05.9,0000.0,0014.00,0003.57,0001.87
2021-11-07 00:33:00,,0825.4,5.00,0.00,30.3,29.0,00.0,39.1,32.0,05.6,0000.0,0014.41,0003.60,0001.88
2021-11-07 00:34:00,,0825.4,5.01,0.00,30.2,26.9,00.0,39.1,31.5,05.4,0000.0,0012.97,0003.58,0001.88
2021-11-07 00:35:00,,0825.4,5.00,0.00,30.0,26.3,00.0,39.1,31.4,05.4,0000.0,0013.41,0003.54,0001.87
2021-11-07 00:36:00,,0825.3,5.00,0.00,29.9,26.6,00.0,39.0,31.4,05.3,0000.0,0014.46,0003.50,0001.88
2021-11-07 00:37:00,,0825.4,4.99,0.00,29.9,27.1,00.0,39.0,31.5,05.3,0000.0,0015.08,0003.45,0001.86
2021-11-07 00:38:00,,0825.3,5.00,0.00,29.9,27.5,00.0,38.9,31.5,05.3,0000.0,0015.24,0003.43,0001.85
2021-11-07 00:39:00,,0825.4,5.00,0.00,29.9,27.8,00.0,38.9,31.5,05.3,0000.0,0015.86,0003.45,0001.83
2021-11-07 00:40:00,,0825.4,5.01,0.00,29.9,28.1,00.0,38.9,31.6,05.8,0000.0,0015.08,0003.41,0001.81
2021-11-07 00:41:00,,0825.3,5.01,0.00,29.9,28.3,00.0,38.9,31.6,06.2,0000.0,0015.04,0003.35,0001.79
2021-11-07 00:42:00,,0825.4,5.00,0.00,29.9,28.5,00.0,38.9,31.6,05.9,0000.0,0015.56,0003.31,0001.78
2021-11-07 00:43:00,,0825.3,5.00,0.00,29.9,28.6,00.0,38.9,31.7,05.7,0000.0,0015.04,0003.28,0001.79
2021-11-07 00:44:00,,0825.3,5.00,0.00,29.9,28.7,00.0,38.9,31.7,05.7,0000.0,0013.97,0003.24,0001.79
2021-11-07 00:45:00,,0825.3,5.00,0.00,30.0,28.8,00.0,38.9,31.7,05.8,0000.0,0013.62,0003.19,0001.78
2021-11-07 00:46:00,,0825.3,5.00,0.00,30.0,28.9,00.0,38.9,31.8,05.7,0000.0,0012.62,0003.17,0001.76
2021-11-07 00:47:00,,0825.4,4.99,0.00,30.0,29.0,00.0,38.9,31.8,05.7,0000.0,0011.49,0003.13,0001.74
2021-11-07 00:48:00,,0825.4,5.01,0.00,30.1,29.1,00.0,39.0,31.9,05.7,0000.0,0011.98,0003.11,0001.73
2021-11-07 00:49:00,,0825.3,4.99,0.00,30.1,29.1,00.0,39.0,31.9,05.6,0000.0,0012.43,0003.05,0001.72
2021-11-07 00:50:00,,0825.4,5.01,0.00,30.1,29.2,00.0,39.0,31.9,05.7,0000.0,0011.50,0002.94,0001.70
2021-11-07 00:51:00,,0825.4,5.01,0.00,30.1,29.2,00.0,39.0,31.9,05.9,0000.0,0011.07,0002.79,0001.65
2021-11-07 00:52:00,,0825.3,5.01,0.00,30.2,29.3,00.0,39.0,32.0,05.8,0000.0,0010.88,0002.74,0001.64
2021-11-07 00:53:00,,0825.3,5.01,0.00,30.2,29.3,00.0,39.1,32.0,05.6,0000.0,0010.30,0002.76,0001.62
2021-11-07 00:54:00,,0825.3,4.99,0.00,30.2,29.3,00.0,39.1,32.0,05.5,0000.0,0009.81,0002.69,0001.59
2021-11-07 00:55:00,,0825.3,5.00,0.00,30.2,29.3,00.0,39.1,32.0,05.6,0000.0,0010.24,0002.62,0001.56
2021-11-07 00:56:00,,0825.3,5.00,0.00,30.3,29.4,00.0,39.1,32.0,05.4,0000.0,0010.36,0002.55,0001.54
2021-11-07 00:57:00,,0825.3,5.01,0.00,30.3,29.4,00.0,39.1,32.1,05.6,0000.0,0009.99,0002.51,0001.53
2021-11-07 00:58:00,,0825.3,4.99,0.00,30.3,29.1,00.0,39.2,32.0,05.6,0000.0,0009.74,0002.48,0001.52
2021-11-07 00:59:00,,0825.4,5.00,0.00,30.2,26.8,00.0,39.1,31.5,05.7,0000.0,0008.66,0002.42,0001.50
